Погода в Шокурове

Россия / Свердловская область     56°19′28″N   59°06′48″E
темп.,
°C
ветер,
м/с
пор.,
м/с
влажн.,
%
обл.,
%
осадки,
мм/ч
давл.,
гПа
погр.,
м
16 апреля, пт
пт1623:00+9юз3108417 0.0 1020164
02:00+8юз228449 0.0 102025
05:00+7ссз1188100 0.0 102121
08:00+8всв4889100 0.0 1022470
11:00+6всв4682100 0.0 1024516
14:00+6всв577799 0.0 1026598
17:00+6в466799 0.0 1026608
20:00+5вюв387562 0.0 1026375
17 апреля, сб
сб1723:00+2всв25825 0.0 1027104
02:00+1всв25795 0.0 102787
05:000всв23775 0.0 102748
08:00+3всв24625 0.0 1026163
11:00+8ссв23455 0.0 1025892
14:00+10ссз33370 0.0 10241410
17:00+10ссз44360 0.0 10231506
20:00+6сз36594 0.0 1023119
18 апреля, вс
вс1823:00+3сз22725 0.0 102315
02:00+2зсз22785 0.0 102317
05:00+1зсз28875 0.0 1023168
08:00+3сз410795 0.0 1022467
11:00+5ссв5765100 0.1 10231378
14:00+4св5650100 0.0 10261509
17:00+4св553470 0.0 10281961
20:00+1всв49435 0.0 1031610
19 апреля, пн
пн1923:00−2всв49480 0.0 1033571
02:00−3всв59460 0.0 1035675
05:00−4в48510 0.0 1036579
08:00−3в46410 0.0 1038820
11:000в45270 0.0 10371364
14:00+2в45240 0.0 10371713
17:00+3в34260 0.0 10361741
20:00−1вюв23450 0.0 103746
20 апреля, вт
вт2023:00−4юв26550 0.0 1039135
02:00−4юв12550 0.0 103931
05:00−4вюв11530 0.0 103916
08:00−1вюв11390 0.0 1040294
11:00+4вюв112610 0.0 1038778
14:00+7з11245 0.0 1037996
17:00+7зсз12240 0.0 10351059
20:00+3зсз22444 0.0 103512